Flag for Germany Weather past 2 weeks in Stendal, Saxony-Anhalt, Germany

Now
65 °F

Clear.


Feels Like: 65 °F
Forecast: 60 / 78 °F
Wind: 2 mph from Southeast

Location: Magdeburg

Current Time: Aug 4, 2015 at 4:32:24 AM

Latest Report: Aug 4, 2015 at 4:00 AM


Visibility: 14 mi

Pressure: 29.96 "Hg

Humidity: 74%

Dew point: 57 °F

Location of StendalLocation

Historic Weather in Stendal — Graph

°F

Stendal temperature yesterday

Maximum temperature yesterday: 89 °F (at 5:00 PM)
Minimum temperature yesterday: 55 °F (at 4:00 AM)
Average temperature yesterday: 73 °F

Past Weeks' High & Low Weather Summary

 TemperatureHumidityPressure
High89 °F (Aug 3, 5:00 PM)96% (Jul 25, 6:00 AM)30.13 "Hg (Jul 25, 6:00 AM)
Low47 °F (Aug 1, 3:00 AM)29% (Aug 3, 3:00 PM)29.54 "Hg (Jul 25, 2:00 PM)
Average67 °F63%29.88 "Hg
* Reported Jul 20 3:00 AM — Aug 4 3:00 AM, Stendal, Weather by CustomWeather, © 2015

Note: Actual official high and low records may vary slightly from our data, if they occured in-between our weather recording intervals... More about our weather records

Advertising

Stendal weather history for previous 24 hours

 ConditionsComfort  
Time TempWeatherWind HumidityBarometerVisibility
3:00 AM
Tue, Aug 4
67 °FPassing clouds.1 mph72%29.97 "Hg16 mi
2:00 AM67 °FClear.1 mph73%29.98 "Hg16 mi
1:00 AM68 °FClear.1 mph72%29.99 "Hg16 mi
10:00 PM
Mon, Aug 3
74 °FPassing clouds.1 mph57%30.00 "Hg22 mi
9:00 PM79 °FPassing clouds.1 mph48%29.99 "Hg25 mi
8:00 PM86 °FPartly sunny.2 mph32%29.98 "Hg34 mi
7:00 PM89 °FPassing clouds.3 mph30%29.99 "Hg25 mi
6:00 PM89 °FPassing clouds.3 mph30%30.00 "Hg25 mi
5:00 PM89 °FPassing clouds.3 mph29%30.01 "Hg37 mi
4:00 PM89 °FPassing clouds.3 mph29%30.02 "Hg28 mi
3:00 PM88 °FPassing clouds.5 mph29%30.03 "Hg28 mi
2:00 PM86 °FPassing clouds.3 mph32%30.05 "Hg28 mi
1:00 PM85 °FPassing clouds.3 mph35%30.06 "Hg28 mi
12:00 PM81 °FPassing clouds.3 mph39%30.08 "Hg28 mi
11:00 AM76 °FPassing clouds.2 mph48%30.09 "Hg28 mi
10:00 AM71 °FPartly sunny.2 mph56%30.09 "Hg28 mi
9:00 AM68 °FScattered clouds.1 mph63%30.10 "Hg25 mi
8:00 AM63 °FScattered clouds.1 mph72%30.10 "Hg22 mi
7:00 AM56 °FPassing clouds.1 mph87%30.10 "Hg22 mi
6:00 AM55 °FScattered clouds.1 mph88%30.10 "Hg22 mi
5:00 AM55 °FClear.2 mph88%30.11 "Hg14 mi
4:00 AM55 °FClear.1 mph86%30.11 "Hg16 mi
Weather by CustomWeather, © 2015

See weather overviewHow to use our weather pages